MZN71 SKCG-MROC

Flight info

Callsign MZN71
Flight time 0h 56m
Altitude 38000
Route KOPG2A KOPGI ISIMO UM796 ALGEN ISEBA CUAR4I
Aircraft B738/M-VGDW/C

Departure

Time 2026-04-25 21:59
Airport Rafael Nuñez International Airport (SKCG)

Arrival

Time 2026-04-25 22:55
Airport Juan Santamaría International Airport (MROC)
Time Latitude Longitude Altitude Speed Heading
2026-04-25 21:59 10.47741 -75.59388 5840 ft 267 kts 242°
2026-04-25 21:59 10.46904 -75.61128 6822 ft 274 kts 246°
2026-04-25 21:59 10.46126 -75.62895 7785 ft 281 kts 246°
2026-04-25 22:00 10.44307 -75.66509 9716 ft 291 kts 237°
2026-04-25 22:00 10.43088 -75.68136 10693 ft 294 kts 231°
2026-04-25 22:00 10.41721 -75.69737 11483 ft 305 kts 230°
2026-04-25 22:00 10.40743 -75.70866 11875 ft 317 kts 228°
2026-04-25 22:01 10.38510 -75.72955 12488 ft 344 kts 219°
2026-04-25 22:01 10.36518 -75.74426 12860 ft 364 kts 220°
2026-04-25 22:01 10.34768 -75.76351 13130 ft 382 kts 237°
2026-04-25 22:01 10.34306 -75.77147 13217 ft 388 kts 243°
2026-04-25 22:02 10.33308 -75.81684 13891 ft 409 kts 271°
2026-04-25 22:02 10.33820 -75.84536 14544 ft 414 kts 288°
2026-04-25 22:02 10.35038 -75.87107 15166 ft 420 kts 301°
2026-04-25 22:02 10.36525 -75.89717 15771 ft 424 kts 293°
2026-04-25 22:03 10.37399 -75.92587 16365 ft 427 kts 279°
2026-04-25 22:03 10.37578 -75.95589 16937 ft 431 kts 266°
2026-04-25 22:03 10.37155 -75.98618 17500 ft 434 kts 260°
2026-04-25 22:03 10.36716 -76.01653 18030 ft 438 kts 261°
2026-04-25 22:04 10.36285 -76.04701 18533 ft 442 kts 261°
2026-04-25 22:04 10.35987 -76.06797 18859 ft 445 kts 261°
2026-04-25 22:04 10.35545 -76.09882 19311 ft 449 kts 261°
2026-04-25 22:04 10.35092 -76.13033 19760 ft 453 kts 261°
2026-04-25 22:05 10.34632 -76.16206 20204 ft 456 kts 262°
2026-04-25 22:05 10.34167 -76.19409 20613 ft 460 kts 262°
2026-04-25 22:05 10.33698 -76.22629 21017 ft 463 kts 262°
2026-04-25 22:05 10.33223 -76.25881 21384 ft 467 kts 262°
2026-04-25 22:06 10.32748 -76.29154 21759 ft 470 kts 262°
2026-04-25 22:06 10.32270 -76.32452 22125 ft 473 kts 262°
2026-04-25 22:06 10.31792 -76.35770 22456 ft 477 kts 262°
2026-04-25 22:06 10.31308 -76.39109 22794 ft 479 kts 262°
2026-04-25 22:07 10.30820 -76.42467 23107 ft 482 kts 262°
2026-04-25 22:07 10.30494 -76.44704 23314 ft 484 kts 262°
2026-04-25 22:07 10.29832 -76.49246 23714 ft 488 kts 262°
2026-04-25 22:07 10.29333 -76.52657 23992 ft 490 kts 262°
2026-04-25 22:08 10.28831 -76.56094 24295 ft 492 kts 262°
2026-04-25 22:08 10.28328 -76.59533 24624 ft 493 kts 262°
2026-04-25 22:08 10.27822 -76.62983 24932 ft 494 kts 262°
2026-04-25 22:08 10.27316 -76.66438 25230 ft 496 kts 262°
2026-04-25 22:09 10.26808 -76.69900 25507 ft 497 kts 262°
2026-04-25 22:09 10.26298 -76.73372 25754 ft 498 kts 262°
2026-04-25 22:09 10.25793 -76.76811 25967 ft 499 kts 262°
2026-04-25 22:09 10.25275 -76.80333 26256 ft 498 kts 262°
2026-04-25 22:10 10.24773 -76.83752 26601 ft 495 kts 262°
2026-04-25 22:10 10.24264 -76.87206 26905 ft 494 kts 262°
2026-04-25 22:10 10.23757 -76.90647 27207 ft 492 kts 262°
2026-04-25 22:10 10.23251 -76.94071 27520 ft 490 kts 262°
2026-04-25 22:11 10.22745 -76.97503 27819 ft 489 kts 261°
2026-04-25 22:11 10.22243 -77.00901 28110 ft 488 kts 261°
2026-04-25 22:11 10.21740 -77.04303 28402 ft 486 kts 261°
2026-04-25 22:11 10.21241 -77.07687 28696 ft 484 kts 261°
2026-04-25 22:12 10.20745 -77.11066 28981 ft 483 kts 261°
2026-04-25 22:12 10.20250 -77.14430 29252 ft 481 kts 261°
2026-04-25 22:12 10.19752 -77.17789 29522 ft 480 kts 261°
2026-04-25 22:12 10.19416 -77.20047 29690 ft 479 kts 261°
2026-04-25 22:13 10.18759 -77.24464 30045 ft 477 kts 261°
2026-04-25 22:13 10.18266 -77.27789 30278 ft 476 kts 261°
2026-04-25 22:13 10.17769 -77.31109 30462 ft 477 kts 261°
2026-04-25 22:13 10.17273 -77.34436 30659 ft 476 kts 261°
2026-04-25 22:14 10.16780 -77.37741 30856 ft 476 kts 260°
2026-04-25 22:14 10.15940 -77.44151 31220 ft 476 kts 263°
2026-04-25 22:14 10.15558 -77.50840 31641 ft 475 kts 267°
2026-04-25 22:14 10.15501 -77.57556 31980 ft 476 kts 269°
2026-04-25 22:15 10.15486 -77.64273 32330 ft 475 kts 268°
2026-04-25 22:15 10.15357 -77.70962 32673 ft 474 kts 266°
2026-04-25 22:15 10.15167 -77.77650 33016 ft 473 kts 266°
2026-04-25 22:16 10.14797 -77.90997 33647 ft 473 kts 266°
2026-04-25 22:16 10.14605 -77.97658 33987 ft 472 kts 266°
2026-04-25 22:16 10.14410 -78.04312 34298 ft 471 kts 266°
2026-04-25 22:16 10.14214 -78.10951 34571 ft 471 kts 266°
2026-04-25 22:17 10.14017 -78.17567 34848 ft 470 kts 266°
2026-04-25 22:17 10.13819 -78.24201 35181 ft 468 kts 266°
2026-04-25 22:17 10.13620 -78.30811 35419 ft 468 kts 266°
2026-04-25 22:17 10.13420 -78.37400 35697 ft 467 kts 266°
2026-04-25 22:18 10.13219 -78.44002 35966 ft 467 kts 266°
2026-04-25 22:18 10.13018 -78.50529 36226 ft 466 kts 266°
2026-04-25 22:18 10.12814 -78.57136 36448 ft 465 kts 266°
2026-04-25 22:18 10.12611 -78.63664 36723 ft 464 kts 266°
2026-04-25 22:19 10.12408 -78.70144 36934 ft 463 kts 266°
2026-04-25 22:19 10.12201 -78.76735 37152 ft 463 kts 266°
2026-04-25 22:19 10.11995 -78.83228 37391 ft 462 kts 266°
2026-04-25 22:19 10.11790 -78.89638 37699 ft 460 kts 266°
2026-04-25 22:20 10.11581 -78.96143 37835 ft 463 kts 266°
2026-04-25 22:20 10.11156 -79.09210 37839 ft 462 kts 267°
2026-04-25 22:21 10.10741 -79.22236 37839 ft 457 kts 266°
2026-04-25 22:21 10.10313 -79.35039 37840 ft 457 kts 267°
2026-04-25 22:22 10.09869 -79.48048 37845 ft 457 kts 266°
2026-04-25 22:22 10.09138 -79.60922 37845 ft 457 kts 264°
2026-04-25 22:23 10.08222 -79.73779 37845 ft 457 kts 264°
2026-04-25 22:23 10.07372 -79.86563 37845 ft 457 kts 265°
2026-04-25 22:24 10.05730 -80.11512 37845 ft 457 kts 265°
2026-04-25 22:24 10.04016 -80.37036 37845 ft 456 kts 265°
2026-04-25 22:25 10.02272 -80.62719 37846 ft 456 kts 265°
2026-04-25 22:25 10.00515 -80.88374 37846 ft 456 kts 265°
2026-04-25 22:26 9.97184 -81.13902 37847 ft 458 kts 254°
2026-04-25 22:26 9.90307 -81.38735 37848 ft 458 kts 255°
2026-04-25 22:27 9.84923 -81.61686 37848 ft 458 kts 255°
2026-04-25 22:27 9.81891 -81.74078 37848 ft 458 kts 255°
2026-04-25 22:28 9.78934 -81.86200 37848 ft 458 kts 255°
2026-04-25 22:28 9.75795 -81.99002 37848 ft 458 kts 255°
2026-04-25 22:29 9.74115 -82.05873 37849 ft 458 kts 255°
2026-04-25 22:29 9.72581 -82.12137 37848 ft 458 kts 255°
2026-04-25 22:30 9.70276 -82.21544 37849 ft 461 kts 255°
2026-04-25 22:30 9.68982 -82.26798 37851 ft 463 kts 255°
2026-04-25 22:31 9.67170 -82.34167 37849 ft 460 kts 255°
2026-04-25 22:31 9.65627 -82.40447 37849 ft 457 kts 255°
2026-04-25 22:32 9.64087 -82.46706 37849 ft 458 kts 255°
2026-04-25 22:32 9.62545 -82.52964 37849 ft 458 kts 255°
2026-04-25 22:33 9.61016 -82.59179 37846 ft 459 kts 255°
2026-04-25 22:33 9.59468 -82.65482 37842 ft 462 kts 255°
2026-04-25 22:34 9.57905 -82.71795 37848 ft 463 kts 255°
2026-04-25 22:34 9.56355 -82.78052 37141 ft 454 kts 255°
2026-04-25 22:35 9.55581 -82.81174 36335 ft 457 kts 255°
2026-04-25 22:35 9.54975 -82.84326 35613 ft 458 kts 263°
2026-04-25 22:35 9.54858 -82.87553 34901 ft 459 kts 271°
2026-04-25 22:35 9.55213 -82.90783 34100 ft 462 kts 278°
2026-04-25 22:36 9.55877 -82.93968 33323 ft 463 kts 283°
2026-04-25 22:36 9.56695 -82.97126 32537 ft 464 kts 284°
2026-04-25 22:36 9.57529 -83.00291 31734 ft 465 kts 284°
2026-04-25 22:36 9.58346 -83.03460 30913 ft 466 kts 284°
2026-04-25 22:37 9.59161 -83.06648 30075 ft 466 kts 284°
2026-04-25 22:37 9.59973 -83.09828 29225 ft 467 kts 284°
2026-04-25 22:37 9.60812 -83.13019 28363 ft 468 kts 286°
2026-04-25 22:37 9.61820 -83.16155 27478 ft 470 kts 289°
2026-04-25 22:38 9.62946 -83.19262 26563 ft 471 kts 291°
2026-04-25 22:38 9.64110 -83.22377 25700 ft 471 kts 291°
2026-04-25 22:38 9.65247 -83.25477 24993 ft 467 kts 291°
2026-04-25 22:38 9.66356 -83.28559 24290 ft 464 kts 291°
2026-04-25 22:39 9.67446 -83.31615 23587 ft 460 kts 291°
2026-04-25 22:39 9.68530 -83.34662 22885 ft 456 kts 290°
2026-04-25 22:39 9.69597 -83.37670 22188 ft 453 kts 290°
2026-04-25 22:39 9.70655 -83.40656 21493 ft 449 kts 290°
2026-04-25 22:40 9.71708 -83.43630 20798 ft 445 kts 290°
2026-04-25 22:40 9.72747 -83.46565 20110 ft 441 kts 290°
2026-04-25 22:40 9.73768 -83.49484 19420 ft 437 kts 288°
2026-04-25 22:40 9.74500 -83.52457 18736 ft 434 kts 281°
2026-04-25 22:41 9.74826 -83.55472 18060 ft 430 kts 273°
2026-04-25 22:41 9.74810 -83.58495 17334 ft 427 kts 267°
2026-04-25 22:41 9.74558 -83.61493 16535 ft 426 kts 265°
2026-04-25 22:41 9.74309 -83.64474 15827 ft 422 kts 266°
2026-04-25 22:42 9.74098 -83.67383 15380 ft 414 kts 266°
2026-04-25 22:42 9.73894 -83.70266 15313 ft 396 kts 266°
2026-04-25 22:42 9.73698 -83.73001 15231 ft 381 kts 266°
2026-04-25 22:42 9.73513 -83.75584 15147 ft 366 kts 266°
2026-04-25 22:43 9.73332 -83.78106 15059 ft 353 kts 266°
2026-04-25 22:43 9.73159 -83.80507 14970 ft 341 kts 266°
2026-04-25 22:43 9.73026 -83.82872 14858 ft 330 kts 271°
2026-04-25 22:43 9.73493 -83.85124 14538 ft 318 kts 295°
2026-04-25 22:44 9.74760 -83.86875 14275 ft 299 kts 314°
2026-04-25 22:44 9.76261 -83.88237 13975 ft 284 kts 317°
2026-04-25 22:44 9.77635 -83.89529 13698 ft 266 kts 315°
2026-04-25 22:44 9.78936 -83.90813 13379 ft 244 kts 315°
2026-04-25 22:45 9.80100 -83.91970 13073 ft 223 kts 314°
2026-04-25 22:45 9.81151 -83.93018 12772 ft 203 kts 314°
2026-04-25 22:45 9.82140 -83.93969 12324 ft 193 kts 315°
2026-04-25 22:45 9.83071 -83.94896 11911 ft 180 kts 314°
2026-04-25 22:46 9.83917 -83.95761 11440 ft 168 kts 314°
2026-04-25 22:46 9.84720 -83.96574 11006 ft 157 kts 314°
2026-04-25 22:46 9.85470 -83.97330 10622 ft 145 kts 314°
2026-04-25 22:46 9.86158 -83.98022 10232 ft 137 kts 314°
2026-04-25 22:47 9.86833 -83.98699 9815 ft 133 kts 314°
2026-04-25 22:47 9.87474 -83.99342 9395 ft 130 kts 314°
2026-04-25 22:47 9.88119 -83.99988 8948 ft 128 kts 314°
2026-04-25 22:47 9.88788 -84.00659 8703 ft 150 kts 314°
2026-04-25 22:48 9.89291 -84.01163 8709 ft 148 kts 314°
2026-04-25 22:48 9.90183 -84.02097 8375 ft 134 kts 308°
2026-04-25 22:48 9.90553 -84.02615 8190 ft 128 kts 304°
2026-04-25 22:48 9.91040 -84.03388 7945 ft 142 kts 302°
2026-04-25 22:49 9.91562 -84.04260 8051 ft 144 kts 301°
2026-04-25 22:49 9.92083 -84.05122 7846 ft 139 kts 301°
2026-04-25 22:49 9.92567 -84.05924 7619 ft 133 kts 301°
2026-04-25 22:49 9.93056 -84.06733 7412 ft 133 kts 301°
2026-04-25 22:50 9.93537 -84.07532 7229 ft 135 kts 301°
2026-04-25 22:50 9.94041 -84.08336 7034 ft 135 kts 305°
2026-04-25 22:50 9.94635 -84.09076 6790 ft 136 kts 313°
2026-04-25 22:50 9.95380 -84.09677 6448 ft 138 kts 325°
2026-04-25 22:51 9.96256 -84.10083 6025 ft 138 kts 341°
2026-04-25 22:51 9.97204 -84.10244 5599 ft 141 kts 354°
2026-04-25 22:51 9.98169 -84.10262 5266 ft 135 kts 354°
2026-04-25 22:51 9.99079 -84.10355 5026 ft 130 kts 345°
2026-04-25 22:52 9.99913 -84.10683 4904 ft 130 kts 332°
2026-04-25 22:52 10.00689 -84.11207 4807 ft 139 kts 318°
2026-04-25 22:52 10.01309 -84.11988 4659 ft 145 kts 301°
2026-04-25 22:52 10.01716 -84.12932 4448 ft 148 kts 285°
2026-04-25 22:53 10.01823 -84.13963 4207 ft 146 kts 270°
2026-04-25 22:53 10.01695 -84.14981 3984 ft 144 kts 257°
2026-04-25 22:53 10.01349 -84.15928 3766 ft 142 kts 245°
2026-04-25 22:53 10.00947 -84.16853 3552 ft 143 kts 244°
2026-04-25 22:54 10.00556 -84.17769 3339 ft 143 kts 248°
2026-04-25 22:54 10.00202 -84.18707 3176 ft 141 kts 247°
2026-04-25 22:54 9.99852 -84.19629 3077 ft 140 kts 248°
2026-04-25 22:54 9.99529 -84.20477 3030 ft 130 kts 245°
2026-04-25 22:55 9.99286 -84.21106 3029 ft 57 kts 248°
2026-04-25 22:55 9.99203 -84.21329 3029 ft 28 kts 250°
2026-04-25 22:55 9.99242 -84.21437 3029 ft 14 kts 341°
2026-04-25 22:55 9.99274 -84.21420 3029 ft 8 kts 69°
2026-04-25 22:56 9.99306 -84.21336 3029 ft 13 kts 70°
2026-04-25 22:56 9.99368 -84.21285 3029 ft 13 kts
2026-04-25 22:56 9.99450 -84.21271 3029 ft 12 kts 345°
2026-04-25 22:56 9.99504 -84.21289 3029 ft 0 kts 340°
2026-04-25 22:57 9.99510 -84.21291 3029 ft 0 kts 340°